User: anonymous   Login
Location: Curupao
(10.4996°N, 66.6442°W)
Time: 08:43:24
(UTC+00:00)
Language:

CZ-2C R/B - Orbit

View from above orbital plane
View from above orbital plane
View from above satellite
View from above satellite

Ground track
Ground track

The orbit data is extracted from the following two-line orbital elements,

1 36089U 09061B   24203.89749154  .00001565  00000-0  39070-3 0  9999
2 36089  98.3607 169.5647 0079838  10.4855 349.7982 14.51096523777196
Epoch (UTC): 21 July 2024 21:32:23
Eccentricity: 0.0079838
inclination: 98.3607°
perigee height: 665 km
apogee height: 779 km
right ascension of ascending node: 169.5647°
argument of perigee: 10.4855°
revolutions per day: 14.51096523
mean anomaly at epoch: 349.7982°
orbit number at epoch: 77719

The dashed part of the orbit path shows where the satellite is in the earth's shadow,  

DLR